Taylorville, IL

2:21 AM CDT on May 23, 2017 (GMT -0500)
Taylorville Municipal

Weather History for KTAZ - September, 2013

Change the Weather History Date:

Wednesday, September 25, 2013

  Actual Average (KSPI) Record (KSPI)
Temperature  
Mean Temperature 73 °F -  
Max Temperature 86 °F 73 °F 94 °F (1891)
Min Temperature 60 °F 51 °F 36 °F (2001)
Cooling Degree Days 8    
Growing Degree Days 23 (Base 50)    
Moisture  
Dew Point 62 °F    
Average Humidity 76    
Maximum Humidity 100    
Minimum Humidity 42    
Precipitation  
Precipitation 0.00 in - - ()
Sea Level Pressure  
Sea Level Pressure 29.86 in    
Wind  
Wind Speed 2 mph (ENE)    
Max Wind Speed 7 mph    
Max Gust Speed -    
Visibility 9 miles    
Events      
Averages and records for this station are not official NWS values.
T = Trace of Precipitation, MM = Missing Value Source: NWS Daily Summary

Daily Weather History Graph

Daily Weather History Graph

Search for Another Location

Airport or City:

Trip Planner

Search our weather history database for the weather conditions in past years. The results will help you decide how hot, cold, wet, or windy it might be!

Date:

Astronomy

Sep. 25, 2013 Rise Set
Actual Time 6:48 AM CDT 6:49 PM CDT
Civil Twilight 6:21 AM CDT 7:15 PM CDT
Nautical Twilight 5:49 AM CDT 7:47 PM CDT
Astronomical Twilight 5:18 AM CDT 8:18 PM CDT
Moon 10:56 PM CDT (9/25) 12:52 PM CDT (9/25)
Length of Visible Light 12h 54m
Length of Day
12h 01m
Waning Gibbous, 64% of the Moon is Illuminated
Sep 25
Waning Gibbous
Sep 26
Last Quarter
Oct 4
New
Oct 11
First Quarter
Oct 18
Full

Hourly Weather History & Observations

Time (CDT) Temp. Heat Index Dew Point Humidity Pressure Visibility Wind Dir Wind Speed Gust Speed Precip Events Conditions
12:15 AM 66.2 °F - 60.8 °F 83% 29.85 in 10.0 mi Calm Calm - N/A   Clear
12:35 AM 64.4 °F - 60.8 °F 88% 29.85 in 10.0 mi Calm Calm - N/A   Clear
12:55 AM 64.4 °F - 60.8 °F 88% 29.85 in 10.0 mi Calm Calm - N/A   Clear
1:15 AM 62.6 °F - 60.8 °F 94% 29.84 in 10.0 mi East 3.5 mph - N/A   Clear
1:35 AM 64.4 °F - 62.6 °F 94% 29.84 in 10.0 mi East 4.6 mph - N/A   Clear
1:55 AM 64.4 °F - 62.6 °F 94% 29.83 in 10.0 mi East 3.5 mph - N/A   Clear
2:35 AM 64.4 °F - 62.6 °F 94% 29.83 in 10.0 mi Calm Calm - N/A   Clear
2:55 AM 64.4 °F - 62.6 °F 94% 29.83 in 10.0 mi ESE 3.5 mph - N/A   Scattered Clouds
3:15 AM 64.4 °F - 62.6 °F 94% 29.83 in 10.0 mi Calm Calm - N/A   Mostly Cloudy
3:35 AM 64.4 °F - 62.6 °F 94% 29.83 in 10.0 mi NNE 3.5 mph - N/A   Overcast
3:55 AM 62.6 °F - 62.6 °F 100% 29.84 in 10.0 mi North 5.8 mph - N/A   Mostly Cloudy
4:35 AM 62.6 °F - 60.8 °F 94% 29.84 in 10.0 mi Calm Calm - N/A   Clear
4:55 AM 60.8 °F - 60.8 °F 100% 29.84 in 7.0 mi Calm Calm - N/A   Clear
5:15 AM 60.8 °F - 59.0 °F 94% 29.84 in 7.0 mi Calm Calm - N/A   Clear
5:35 AM 60.8 °F - 59.0 °F 94% 29.85 in 7.0 mi Calm Calm - N/A   Clear
5:55 AM 60.8 °F - 60.8 °F 100% 29.86 in 7.0 mi Calm Calm - N/A   Clear
6:15 AM 60.8 °F - 60.8 °F 100% 29.85 in 7.0 mi ENE 4.6 mph - N/A   Clear
6:35 AM 60.8 °F - 60.8 °F 100% 29.86 in 7.0 mi ENE 4.6 mph - N/A   Clear
6:55 AM 60.8 °F - 60.8 °F 100% 29.86 in 7.0 mi East 5.8 mph - N/A   Clear
7:15 AM 60.8 °F - 60.8 °F 100% 29.87 in 7.0 mi ENE 3.5 mph - N/A   Clear
7:35 AM 62.6 °F - 60.8 °F 94% 29.87 in 7.0 mi East 3.5 mph - N/A   Clear
7:55 AM 62.6 °F - 60.8 °F 94% 29.87 in 7.0 mi ENE 3.5 mph - N/A   Clear
8:15 AM 64.4 °F - 62.6 °F 94% 29.88 in 10.0 mi East 3.5 mph - N/A   Clear
8:35 AM 66.2 °F - 62.6 °F 88% 29.88 in 10.0 mi ENE 3.5 mph - N/A   Clear
8:55 AM 69.8 °F - 62.6 °F 78% 29.88 in 10.0 mi Calm Calm - N/A   Clear
9:15 AM 69.8 °F - 62.6 °F 78% 29.88 in 10.0 mi East 5.8 mph - N/A   Clear
9:35 AM 71.6 °F - 62.6 °F 73% 29.88 in 10.0 mi ENE 4.6 mph - N/A   Clear
9:55 AM 73.4 °F - 62.6 °F 69% 29.88 in 10.0 mi East 4.6 mph - N/A   Clear
10:15 AM 75.2 °F - 64.4 °F 69% 29.88 in 10.0 mi ENE 3.5 mph - N/A   Clear
10:35 AM 77.0 °F - 64.4 °F 65% 29.88 in 10.0 mi Calm Calm - N/A   Clear
10:55 AM 78.8 °F - 64.4 °F 61% 29.89 in 10.0 mi ENE 3.5 mph - N/A   Clear
11:15 AM 80.6 °F 82.3 °F 64.4 °F 58% 29.89 in 10.0 mi East 5.8 mph - N/A   Clear
11:35 AM 80.6 °F 82.3 °F 64.4 °F 58% 29.88 in 10.0 mi ENE 4.6 mph - N/A   Clear
11:55 AM 82.4 °F 83.9 °F 64.4 °F 54% 29.88 in 10.0 mi NE 5.8 mph - N/A   Clear
12:15 PM 82.4 °F 83.4 °F 62.6 °F 51% 29.87 in 10.0 mi NE 6.9 mph - N/A   Clear
12:35 PM 84.2 °F 85.0 °F 62.6 °F 48% 29.87 in 10.0 mi NE 6.9 mph - N/A   Clear
1:15 PM 80.6 °F 81.8 °F 62.6 °F 54% 29.86 in 10.0 mi ENE 5.8 mph - N/A   Clear
1:55 PM 86.0 °F 86.6 °F 62.6 °F 45% 29.85 in 10.0 mi East 4.6 mph - N/A   Clear
2:15 PM 86.0 °F 86.1 °F 60.8 °F 43% 29.85 in 10.0 mi East 6.9 mph - N/A   Scattered Clouds
2:35 PM 84.2 °F 84.4 °F 60.8 °F 45% 29.85 in 7.0 mi Calm Calm - N/A   Scattered Clouds
2:55 PM 80.6 °F 81.5 °F 60.8 °F 51% 29.85 in 10.0 mi ENE 5.8 mph - N/A   Scattered Clouds
3:15 PM 84.2 °F 85.0 °F 62.6 °F 48% 29.85 in 10.0 mi NE 4.6 mph - N/A   Clear
3:55 PM 84.2 °F 84.4 °F 60.8 °F 45% 29.84 in 10.0 mi North 3.5 mph - N/A   Scattered Clouds
4:15 PM 84.2 °F 84.4 °F 60.8 °F 45% 29.84 in 10.0 mi NE 4.6 mph - N/A   Clear
4:35 PM 84.2 °F 84.4 °F 60.8 °F 45% 29.84 in 10.0 mi Calm Calm - N/A   Scattered Clouds
4:55 PM 84.2 °F 83.8 °F 59.0 °F 42% 29.85 in 10.0 mi NNE 3.5 mph - N/A   Clear
5:15 PM 84.2 °F 83.8 °F 59.0 °F 42% 29.85 in 4.0 mi NE 3.5 mph - N/A   Haze
5:35 PM 82.4 °F 82.9 °F 60.8 °F 48% 29.85 in 7.0 mi ENE 3.5 mph - N/A   Clear
5:55 PM 82.4 °F 82.9 °F 60.8 °F 48% 29.85 in 4.0 mi Calm Calm - N/A   Haze
6:15 PM 80.6 °F 81.5 °F 60.8 °F 51% 29.86 in 4.0 mi Calm Calm - N/A   Haze
6:35 PM 78.8 °F - 60.8 °F 54% 29.86 in 5.0 mi Calm Calm - N/A   Haze
6:55 PM 73.4 °F - 62.6 °F 69% 29.86 in 10.0 mi Calm Calm - N/A   Clear
7:15 PM 69.8 °F - 62.6 °F 78% 29.86 in 10.0 mi Calm Calm - N/A   Clear
7:35 PM 69.8 °F - 62.6 °F 78% 29.86 in 10.0 mi Calm Calm - N/A   Clear
7:55 PM 68.0 °F - 62.6 °F 83% 29.87 in 10.0 mi Calm Calm - N/A   Clear
8:15 PM 66.2 °F - 62.6 °F 88% 29.87 in 10.0 mi Calm Calm - N/A   Clear
8:35 PM 66.2 °F - 62.6 °F 88% 29.88 in 10.0 mi Calm Calm - N/A   Clear
8:55 PM 64.4 °F - 62.6 °F 94% 29.88 in 10.0 mi Calm Calm - N/A   Clear
9:15 PM 64.4 °F - 62.6 °F 94% 29.88 in 10.0 mi Calm Calm - N/A   Clear
9:35 PM 64.4 °F - 62.6 °F 94% 29.89 in 10.0 mi Calm Calm - N/A   Clear
9:55 PM 66.2 °F - 62.6 °F 88% 29.89 in 10.0 mi East 5.8 mph - N/A   Clear
10:15 PM 69.8 °F - 60.8 °F 73% 29.89 in 10.0 mi East 5.8 mph - N/A   Clear
10:35 PM 69.8 °F - 60.8 °F 73% 29.89 in 10.0 mi East 6.9 mph - N/A   Clear
10:55 PM 68.0 °F - 60.8 °F 78% 29.90 in 10.0 mi East 5.8 mph - N/A   Clear
11:15 PM 68.0 °F - 60.8 °F 78% 29.90 in 10.0 mi East 5.8 mph - N/A   Clear
11:35 PM 66.2 °F - 60.8 °F 83% 29.90 in 10.0 mi East 6.9 mph - N/A   Clear
11:55 PM 66.2 °F - 60.8 °F 83% 29.90 in 10.0 mi East 4.6 mph - N/A   Clear